Location: Tel Aviv
(32.0670°N, 34.7670°E)
Time: 13:32:48
(UTC+02:00)

Envisat - Pass Details

Date: 03 December 2021
Orbit: 764 x 766 km, 98.2° (Epoch: 20 January)

Event Time Altitude Azimuth Distance (km) Brightness Sun altitude
Rises 03:14:14 0° 40° (NE) 3,233 6.6 -39.8°
Reaches altitude 10° 03:18:27 10° 74° (ENE) 2,300 6.1 -38.9°
Maximum altitude 03:19:58 11° 92° (E) 2,211 6.1 -38.6°
Drops below altitude 10° 03:21:29 10° 110° (ESE) 2,296 6.1 -38.3°
Sets 03:25:39 0° 144° (SE) 3,215 6.7 -37.4°
